sat.trackr.live / text

‹ back to catalog

STARLINK-37341

NORAD 69509 · 2026-133B

PAYLOAD ACTIVE UNKNOWN

§ Identity

Operator
Country
US
Launch date
2026-06-12
Launch site
AFETR
Launch vehicle
Mass (kg)
RCS (m²)

Purposes: comms

External: N2YO · Heavens-Above · Gunter

§ Orbital elements

Epoch: 2026-09-19T11:30:16.441344Z

Period
93.85 min
Inclination
53.1559°
Eccentricity
0.0001434
Mean motion
15.34398022 rev/d
Perigee alt
461.7 km
Apogee alt
463.7 km
Semi-major
6,840.8 km
B*
5.2267e-4
RAAN
234.7696°
Arg perigee
88.0150°
Mean anomaly
272.1017°
Rev number
1,534

§ Raw data

STARLINK-373411 69509U 26133B   26262.47935696  .00017323  00000+0  52267-3 0  99912 69509  53.1559 234.7696 0001434  88.0150 272.1017 15.34398022 15340

JSON: /api/v1/satellites/69509 · /tle

For live sub-satellite position, see the globe view (requires WebGL).

§ Visibility from observer

Set your observer location to see the next 7 days of passes ≥ 10°. The values pass through the URL so the page stays shareable.

No JS? Fill the form by hand. The geolocation button needs JavaScript.